Location: Newark
(48.6461°N, 4.3644°W)
Time: 04:16:10
(UTC+00:00)

Transit 4A - Pass Details

Date: 26 January 2020
Orbit: 872 x 973 km, 66.8° (Epoch: 18 February)

Event Time Altitude Azimuth Distance (km) Brightness Sun altitude
Rises 09:47:33 0° 282° (WNW) 3,512 10.5 13.5°
Reaches altitude 10° 09:51:09 10° 304° (WNW) 2,556 9.7 13.9°
Maximum altitude 09:54:42 16° 341° (NNW) 2,139 9.3 14.2°
Drops below altitude 10° 09:58:15 10° 19° (NNE) 2,537 9.9 14.6°
Sets 10:01:48 0° 40° (NE) 3,472 10.8 14.9°
